Location: Hylvaty SDH
(49.9612°N, 16.4057°E)
Time: 18:26:03
(UTC+02:00)

Explorer 11/Cluster Stage 4 - All Passes

Search period start: 09 August 2020 00:00
Search period end: 19 August 2020 00:00
Orbit: 467 x 1258 km, 28.8° (Epoch: 08 August)

Date Brightness Start Highest point End Pass type
(mag) Time Alt. Az. Time Alt. Az. Time Alt. Az.
09 Aug - 01:05:51 10° SSW 01:08:59 13° S 01:11:59 10° SSE night (unlit)
09 Aug - 02:54:42 10° SSW 02:56:28 11° SSW 02:58:11 10° S visible
10 Aug - 00:54:17 10° SSW 00:57:52 14° S 01:01:18 10° SSE night (unlit)
10 Aug - 02:43:25 10° SSW 02:45:23 11° SSW 02:47:16 10° S night (unlit)
10 Aug - 22:57:35 10° S 22:59:06 11° SSE 23:00:37 10° SSE visible
11 Aug - 00:42:49 10° SSW 00:46:43 14° S 00:50:29 10° SSE night (unlit)
11 Aug - 02:32:16 10° SSW 02:34:15 11° SSW 02:36:10 10° S night (unlit)
11 Aug - 22:45:25 10° S 22:47:56 12° SSE 22:50:25 10° SSE visible
12 Aug - 00:31:27 10° SSW 00:35:34 15° S 00:39:34 10° SSE night (unlit)
12 Aug - 02:21:17 10° SSW 02:23:07 11° SSW 02:24:54 10° S night (unlit)
12 Aug - 22:33:42 10° S 22:36:45 12° SSE 22:39:50 10° SE visible
13 Aug - 00:20:11 10° SSW 00:24:25 15° S 00:28:33 10° SSE night (unlit)
13 Aug - 02:10:32 10° SSW 02:11:58 11° SSW 02:13:23 10° S night (unlit)
13 Aug - 22:22:11 10° SSW 22:25:35 13° SSE 22:29:01 10° SE visible
14 Aug - 00:09:00 10° SW 00:13:15 15° S 00:17:26 10° SSE visible
14 Aug - 22:10:49 10° SSW 22:14:24 14° S 22:18:04 10° SE visible
14 Aug - 23:57:54 10° SW 00:02:04 15° S 00:06:14 10° SSE visible
15 Aug - 21:59:34 10° SSW 22:03:14 14° S 22:07:01 10° SE visible
15 Aug - 23:46:54 10° SW 23:50:54 14° S 23:54:56 10° SSE visible
16 Aug - 21:48:26 10° SSW 21:52:04 14° S 21:55:51 10° SE visible
16 Aug - 23:35:59 10° SW 23:39:44 14° S 23:43:31 10° SSE visible
17 Aug - 21:37:24 10° SSW 21:40:56 14° S 21:44:37 10° SE visible
17 Aug - 23:25:13 10° SW 23:28:34 13° S 23:31:59 10° SSE visible
18 Aug - 21:26:28 10° SSW 21:29:47 14° S 21:33:17 10° SSE visible
18 Aug - 23:14:37 10° SSW 23:17:24 12° SSW 23:20:15 10° S visible
